Regional Weather Roundup
Issued by NWS Cleveland, OH

Home | Current Version | Previous Version | Text Only | Print | Product List | Glossary Off
Versions: 1 2 3 4 5 6 7 8 9 10 11 12 13 14 15 16 17 18 19 20 21 22 23 24 25 26 27 28 29 30 31 32 33 34 35 36 37 38 39 40 41 42 43 44 45 46 47 48 49 50

000
ASUS41 KCLE 050110
RWRCLE
OHIO REGIONAL WEATHER ROUNDUP
NATIONAL WEATHER SERVICE WILMINGTON, OH
900 PM EDT FRI SEP 04 2015

NOTE: "FAIR" INDICATES FEW OR NO CLOUDS BELOW 12,000 FEET WITH NO
SIGNIFICANT WEATHER AND/OR OBSTRUCTIONS TO VISIBILITY.

OHZ001>008-015>018-024>027-034-035-043-044-050200-
   NORTHWEST OHIO

CITY           SKY/WX    TMP DP  RH WIND       PRES   REMARKS
DEFIANCE       CLOUDY    72  68  87 CALM      30.05R
FINDLAY        CLOUDY    70  65  84 E7        30.04S
TOLEDO EXPRESS CLOUDY    71  67  87 SW3       30.05R
TOLEDO EXEC    CLOUDY    72  65  78 S6        30.06R
LIMA           CLOUDY    69  66  90 S10       30.07R
$$

OHZ009>014-019>023-028>033-038-089-050200-
   NORTHEAST OHIO

CITY           SKY/WX    TMP DP  RH WIND       PRES   REMARKS
CLE-HOPKINS    PTCLDY    72  63  73 S5        30.09R
CLE-LAKEFRONT  PTCLDY    79  66  64 S10       30.06R
CUY CO. ARPT   PTCLDY    79  66  65 S7        30.08R
LORAIN-ELYRIA  PTCLDY    68  60  75 S6        30.07S
ASHTABULA      MOCLDY    73  69  87 E6        30.11R
AKRON-CANTON   MOCLDY    77  65  66 SE6       30.11R
WOOSTER        PTCLDY    67  65  93 CALM      30.11R
MANSFIELD      MOCLDY    69  66  90 E6        30.10R
YOUNGSTOWN     MOCLDY    69  67  93 CALM      30.12R
$$

OHZ042-051>053-060>062-070>072-077>081-050200-
  SOUTHWEST OHIO

CITY           SKY/WX    TMP DP  RH WIND       PRES   REMARKS
CINC-COVINGTON TSTM      71  67  87 N9        30.13R
CINC-LUNKEN    TSTM      70  32  24 NE6       30.13R
HAMILTON       LGT RAIN  69  67  93 S3        30.15R
DAYTON         RAIN      68  66  93 S12       30.10F
WRIGHT-PAT AFB LGT RAIN  69  68  96 SE5       30.12R
DAYTON GENERAL LGT RAIN  69  64  84 SE3       30.13S
WILMINGTON     CLOUDY    73  64  73 NW10      30.14R THUNDER
$$

OHZ036-037-039>041-045>050-054>059-063>069-073>076-082>088-050200-
  CENTRAL AND SOUTHEAST OHIO

CITY           SKY/WX    TMP DP  RH WIND       PRES   REMARKS
COLUMBUS       CLOUDY    69  66  90 W10       30.09R
OSU AIRPORT    CLOUDY    68  65  90 W10       30.12R
BOLTON FIELD   CLOUDY    67  64  91 CALM      30.13R
RICKENBACK AFB CLOUDY    67  65  93 W13       30.10R
NEWARK         CLOUDY    68  63  84 CALM      30.08S
MARION         CLOUDY    68  64  87 S9        30.09R
LANCASTER      CLOUDY    68  66  93 NW3       30.07F FOG
ZANESVILLE     MOCLDY    72  64  76 CALM      30.09R
NEW PHILLY     PTCLDY    73  71  93 CALM      30.11R
$$


USA.gov is the U.S. government's official web portal to all federal, state and local government web resources and services.